This is the latest recevied weather packets stored in our database for station/object DK6GC-10. If no packets are shown the sender has not sent any weather packets the latest 10 day(s).
| Time | Temp. | Humidity | Pressure | Rain* | Wind** | Luminosity | Snow |
|---|---|---|---|---|---|---|---|
| 1787698822 | 15.56° C | 100% | 1017.1 hPa | - | - | - | - |
| 1787697922 | 15.56° C | 100% | 1017.1 hPa | - | - | - | - |
| 1787697022 | 16.11° C | 100% | 1017.1 hPa | - | - | - | - |
| 1787696122 | 16.11° C | 100% | 1017.1 hPa | - | - | - | - |
| 1787695222 | 15.56° C | 100% | 1017 hPa | - | - | - | - |
| 1787694322 | 16.11° C | 100% | 1016.9 hPa | - | - | - | - |
| 1787693421 | 16.11° C | 100% | 1017 hPa | - | - | - | - |
| 1787692521 | 15.56° C | 100% | 1016.8 hPa | - | - | - | - |
| 1787691621 | 15.56° C | 100% | 1016.9 hPa | - | - | - | - |
| 1787690721 | 15.56° C | 100% | 1016.8 hPa | - | - | - | - |
| 1787689821 | 16.11° C | 99% | 1016.7 hPa | - | - | - | - |
| 1787688920 | 16.67° C | 99% | 1016.6 hPa | - | - | - | - |
| 1787688020 | 16.67° C | 99% | 1016.7 hPa | - | - | - | - |
| 1787687120 | 16.67° C | 98% | 1016.9 hPa | - | - | - | - |
| 1787686220 | 16.67° C | 98% | 1016.8 hPa | - | - | - | - |
| 1787685320 | 16.67° C | 99% | 1016.6 hPa | - | - | - | - |
| 1787684420 | 16.67° C | 100% | 1016.5 hPa | - | - | - | - |
| 1787683519 | 16.67° C | 99% | 1016.1 hPa | - | - | - | - |
| 1787682619 | 16.67° C | 99% | 1016 hPa | - | - | - | - |
| 1787681719 | 16.67° C | 98% | 1015.9 hPa | - | - | - | - |
| 1787680822 | 17.22° C | 97% | 1015.9 hPa | - | - | - | - |
| 1787679922 | 17.22° C | 93% | 1016 hPa | - | - | - | - |
| 1787679022 | 17.78° C | 91% | 1015.8 hPa | - | - | - | - |
| 1787678122 | 17.78° C | 91% | 1015.7 hPa | - | - | - | - |
| 1787677221 | 17.78° C | 88% | 1015.6 hPa | - | - | - | - |
* Rain since midnight (hover to see other rain measurements)
** Current wind speed in m/s (hover to see current wind gust speed)